Home > Weather > Duluth > Past weeks

Flag for USA Past Weather in Duluth, Minnesota, USA — Yesterday and Last 2 Weeks

Now
70 °F

Scattered clouds.


Feels Like: 70 °F
Forecast: 53 / 76 °F
Wind: 9 mph from Northeast

Location: Sky Harbor Airport

Current Time: Jul 30, 2016 at 3:47:33 PM

Latest Report: Jul 30, 2016 at 3:14 PM


Visibility: 10 mi

Pressure: 30.04 "Hg

Humidity: 83%

Dew Point: 64 °F

Location of DuluthLocation

Past Weather in Duluth — Graph

°F

Duluth Temperature Yesterday

Maximum temperature yesterday: 72 °F (at 2:53 PM)
Minimum temperature yesterday: 55 °F (at 5:14 AM)
Average temperature yesterday: 64 °F

High & Low Weather Summary for the Past Weeks

 TemperatureHumidityPressure
High91 °F (Jul 21, 5:14 PM)100% (Jul 24, 5:33 AM)30.24 "Hg (Jul 24, 5:33 AM)
Low54 °F (Jul 16, 5:13 AM)33% (Jul 21, 6:53 PM)29.70 "Hg (Jul 21, 5:34 AM)
Average70 °F78%29.99 "Hg
* Reported Jul 15 2:13 PM — Jul 30 2:34 PM, Duluth, Weather by CustomWeather, © 2016

Note: Actual official high and low records may vary slightly from our data, if they occured in-between our weather recording intervals... More about our weather records

Advertising

Duluth Weather History for the Previous 24 Hours

Scroll right to see more
 ConditionsComfort  
Time TempWeatherWind HumidityBarometerVisibility
2:34 PM
Sat, Jul 30
68 °FScattered clouds.10 mph83%30.05 "Hg10 mi
2:14 PM68 °FScattered clouds.8 mph83%30.05 "Hg10 mi
1:54 PM68 °FSunny.9 mph83%30.06 "Hg10 mi
1:34 PM70 °FSunny.9 mph83%30.06 "Hg10 mi
1:14 PM70 °FSunny.8 mph78%30.07 "Hg10 mi
12:54 PM70 °FSunny.8 mph78%30.07 "Hg10 mi
12:33 PM68 °FSunny.7 mph83%30.07 "Hg10 mi
12:14 PM68 °FSunny.7 mph83%30.07 "Hg10 mi
11:54 AM68 °FSunny.6 mph83%30.08 "Hg10 mi
11:33 AM66 °FSunny.5 mph83%30.08 "Hg10 mi
11:14 AM66 °FSunny.5 mph83%30.08 "Hg10 mi
10:54 AM66 °FSunny.5 mph83%30.08 "Hg10 mi
10:33 AM66 °FScattered clouds.5 mph83%30.08 "Hg10 mi
10:14 AM64 °FPartly sunny.5 mph88%30.07 "Hg10 mi
9:54 AM64 °FPartly sunny.5 mph88%30.07 "Hg10 mi
9:34 AM66 °FScattered clouds.5 mph83%30.08 "Hg10 mi
9:14 AM64 °FPartly sunny.5 mph88%30.08 "Hg10 mi
8:54 AM64 °FLow clouds.3 mph88%30.08 "Hg10 mi
8:34 AM63 °FOvercast.3 mph88%30.08 "Hg10 mi
8:14 AM63 °FPartly sunny.No wind88%30.08 "Hg10 mi
7:54 AM61 °FSunny.No wind94%30.08 "Hg10 mi
7:33 AM61 °FSunny.No wind88%30.07 "Hg10 mi
7:14 AM59 °FSunny.No wind94%30.07 "Hg10 mi
6:54 AM57 °FSunny.No wind100%30.07 "Hg10 mi
6:34 AM59 °FPassing clouds.No wind94%30.07 "Hg10 mi
6:14 AM57 °FClear.No wind100%30.07 "Hg10 mi
5:54 AM59 °FClear.3 mph94%30.07 "Hg10 mi
5:34 AM59 °FPassing clouds.No wind94%30.06 "Hg10 mi
5:14 AM57 °FPassing clouds.No wind94%30.06 "Hg10 mi
4:54 AM57 °FClear.No wind94%30.05 "Hg10 mi
4:34 AM57 °FClear.3 mph94%30.05 "Hg10 mi
4:14 AM59 °FClear.3 mph94%30.05 "Hg10 mi
3:54 AM61 °FClear.No wind88%30.05 "Hg10 mi
3:34 AM63 °FClear.6 mph88%30.05 "Hg10 mi
3:14 AM64 °FClear.7 mph83%30.05 "Hg10 mi
2:54 AM64 °FClear.6 mph83%30.06 "Hg10 mi
2:34 AM64 °FClear.6 mph83%30.06 "Hg10 mi
2:14 AM64 °FClear.8 mph83%30.06 "Hg10 mi
1:54 AM63 °FClear.8 mph94%30.07 "Hg10 mi
1:34 AM64 °FClear.7 mph83%30.06 "Hg10 mi
1:14 AM64 °FClear.10 mph83%30.06 "Hg10 mi
12:54 AM64 °FClear.10 mph83%30.07 "Hg10 mi
12:34 AM64 °FClear.10 mph83%30.07 "Hg10 mi
12:14 AM64 °FClear.10 mph83%30.07 "Hg10 mi
11:54 PM
Fri, Jul 29
64 °FClear.9 mph83%30.07 "Hg10 mi
11:34 PM64 °FClear.9 mph83%30.07 "Hg10 mi
11:14 PM64 °FClear.8 mph88%30.07 "Hg10 mi
10:54 PM64 °FClear.8 mph88%30.07 "Hg10 mi
10:34 PM64 °FClear.9 mph88%30.07 "Hg10 mi
10:13 PM64 °FClear.8 mph88%30.07 "Hg10 mi
9:54 PM64 °FClear.9 mph88%30.07 "Hg10 mi
9:34 PM64 °FSunny.9 mph88%30.07 "Hg10 mi
9:13 PM64 °FSunny.9 mph88%30.06 "Hg10 mi
8:54 PM64 °FSunny.7 mph88%30.06 "Hg10 mi
8:34 PM64 °FSunny.7 mph88%30.06 "Hg10 mi
8:13 PM66 °FSunny.7 mph83%30.06 "Hg10 mi
7:54 PM66 °FSunny.8 mph83%30.06 "Hg10 mi
7:34 PM66 °FSunny.7 mph83%30.06 "Hg10 mi
7:13 PM66 °FSunny.6 mph83%30.06 "Hg10 mi
6:54 PM68 °FSunny.6 mph78%30.06 "Hg10 mi
6:34 PM70 °FSunny.6 mph73%30.06 "Hg10 mi
6:13 PM70 °FSunny.8 mph78%30.07 "Hg10 mi
5:54 PM70 °FSunny.5 mph78%30.07 "Hg10 mi
5:34 PM72 °FSunny.6 mph73%30.07 "Hg10 mi
5:13 PM72 °FSunny.9 mph69%30.07 "Hg10 mi
4:54 PM72 °FSunny.8 mph69%30.08 "Hg10 mi
4:33 PM72 °FSunny.12 mph65%30.08 "Hg10 mi
4:14 PM72 °FSunny.12 mph65%30.08 "Hg10 mi
3:54 PM72 °FSunny.10 mph65%30.09 "Hg10 mi
3:33 PM72 °FSunny.8 mph69%30.09 "Hg10 mi
3:14 PM72 °FSunny.7 mph69%30.10 "Hg10 mi
Weather by CustomWeather, © 2016

See weather overviewHow to use our weather pages